Time,TemperatureF,DewpointF,PressureIn,WindDirection,WindDirectionDegrees,WindSpeedMPH,WindSpeedGustMPH,Humidity,HourlyPrecipIn,Conditions,Clouds,dailyrainin,SoftwareType,DateUTC
2013-07-12 00:12:00,58.3,50.0,29.92,SSW,193,9.0,12.0,75,0.00,,,0.00,weatherlink.com 1.10,2013-07-12 07:12:00,
2013-07-12 00:27:00,58.0,51.0,29.92,South,176,8.0,15.0,78,0.00,,,0.00,weatherlink.com 1.10,2013-07-12 07:27:00,
2013-07-12 00:42:00,57.6,51.0,29.92,SSE,150,6.0,11.0,79,0.00,,,0.00,weatherlink.com 1.10,2013-07-12 07:42:00,
2013-07-12 00:57:00,57.0,51.0,29.91,South,173,9.0,14.0,79,0.00,,,0.00,weatherlink.com 1.10,2013-07-12 07:57:00,
2013-07-12 01:12:00,56.9,51.0,29.91,South,184,6.0,16.0,81,0.00,,,0.00,weatherlink.com 1.10,2013-07-12 08:12:00,
2013-07-12 01:27:00,56.7,51.0,29.92,South,187,6.0,16.0,81,0.00,,,0.00,weatherlink.com 1.10,2013-07-12 08:27:00,
2013-07-12 01:42:00,56.4,51.0,29.92,South,175,5.0,18.0,81,0.00,,,0.00,weatherlink.com 1.10,2013-07-12 08:42:00,
2013-07-12 01:57:00,56.2,50.0,29.91,SSW,199,4.0,8.0,79,0.00,,,0.00,weatherlink.com 1.10,2013-07-12 08:57:00,
2013-07-12 02:12:00,55.8,50.0,29.92,SE,140,3.0,7.0,81,0.00,,,0.00,weatherlink.com 1.10,2013-07-12 09:12:00,
2013-07-12 02:27:00,54.0,48.0,29.92,North,355,1.0,3.0,81,0.00,,,0.00,weatherlink.com 1.10,2013-07-12 09:27:00,
2013-07-12 02:42:00,53.3,48.0,29.92,NE,40,2.0,3.0,82,0.00,,,0.00,weatherlink.com 1.10,2013-07-12 09:42:00,
2013-07-12 02:57:00,52.6,47.0,29.92,NE,48,1.0,3.0,82,0.00,,,0.00,weatherlink.com 1.10,2013-07-12 09:57:00,
2013-07-12 03:12:00,52.3,47.0,29.92,East,90,3.0,3.0,82,0.00,,,0.00,weatherlink.com 1.10,2013-07-12 10:12:00,
2013-07-12 03:27:00,51.8,47.0,29.92,East,91,1.0,3.0,84,0.00,,,0.00,weatherlink.com 1.10,2013-07-12 10:27:00,
2013-07-12 03:42:00,51.9,47.0,29.93,East,96,0.0,2.0,84,0.00,,,0.00,weatherlink.com 1.10,2013-07-12 10:42:00,
2013-07-12 03:57:00,52.2,49.0,29.92,WSW,256,3.0,6.0,88,0.00,,,0.00,weatherlink.com 1.10,2013-07-12 10:57:00,
2013-07-12 04:12:00,52.2,48.0,29.92,NE,53,3.0,4.0,85,0.00,,,0.00,weatherlink.com 1.10,2013-07-12 11:12:00,
2013-07-12 04:27:00,51.8,48.0,29.93,East,84,2.0,3.0,85,0.00,,,0.00,weatherlink.com 1.10,2013-07-12 11:27:00,
2013-07-12 04:42:00,52.8,48.0,29.92,East,88,3.0,5.0,85,0.00,,,0.00,weatherlink.com 1.10,2013-07-12 11:42:00,
2013-07-12 04:57:00,52.4,48.0,29.92,NNW,330,1.0,3.0,85,0.00,,,0.00,weatherlink.com 1.10,2013-07-12 11:57:00,
2013-07-12 05:12:00,52.3,48.0,29.92,ENE,63,3.0,4.0,84,0.00,,,0.00,weatherlink.com 1.10,2013-07-12 12:12:00,
2013-07-12 05:27:00,52.1,48.0,29.93,East,82,2.0,3.0,85,0.00,,,0.00,weatherlink.com 1.10,2013-07-12 12:27:00,
2013-07-12 05:42:00,52.2,48.0,29.93,East,84,2.0,3.0,84,0.00,,,0.00,weatherlink.com 1.10,2013-07-12 12:42:00,
2013-07-12 05:57:00,52.3,48.0,29.92,ENE,63,1.0,4.0,85,0.00,,,0.00,weatherlink.com 1.10,2013-07-12 12:57:00,
2013-07-12 06:12:00,52.7,48.0,29.93,NE,46,2.0,4.0,85,0.00,,,0.00,weatherlink.com 1.10,2013-07-12 13:12:00,
2013-07-12 06:27:00,52.6,48.0,29.93,NE,51,1.0,3.0,85,0.00,,,0.00,weatherlink.com 1.10,2013-07-12 13:27:00,
2013-07-12 06:42:00,52.6,48.0,29.92,ENE,63,1.0,3.0,85,0.00,,,0.00,weatherlink.com 1.10,2013-07-12 13:42:00,
2013-07-12 06:57:00,53.2,49.0,29.93,NE,44,1.0,3.0,85,0.00,,,0.00,weatherlink.com 1.10,2013-07-12 13:57:00,
2013-07-12 07:12:00,55.3,50.0,29.93,ENE,59,1.0,2.0,81,0.00,,,0.00,weatherlink.com 1.10,2013-07-12 14:12:00,
2013-07-12 07:27:00,56.6,51.0,29.93,ENE,59,0.0,2.0,80,0.00,,,0.00,weatherlink.com 1.10,2013-07-12 14:27:00,
2013-07-12 07:42:00,57.4,51.0,29.93,ENE,59,0.0,2.0,78,0.00,,,0.00,weatherlink.com 1.10,2013-07-12 14:42:00,
2013-07-12 07:57:00,58.4,52.0,29.93,ENE,60,2.0,2.0,78,0.00,,,0.00,weatherlink.com 1.10,2013-07-12 14:57:00,
2013-07-12 08:12:00,57.4,51.0,29.93,SW,236,2.0,5.0,80,0.00,,,0.00,weatherlink.com 1.10,2013-07-12 15:12:00,
2013-07-12 08:27:00,57.7,52.0,29.93,SW,232,2.0,4.0,81,0.00,,,0.00,weatherlink.com 1.10,2013-07-12 15:27:00,
2013-07-12 08:42:00,58.1,52.0,29.92,SW,229,1.0,4.0,81,0.00,,,0.00,weatherlink.com 1.10,2013-07-12 15:42:00,
2013-07-12 08:57:00,58.7,53.0,29.92,SSW,203,3.0,4.0,81,0.00,,,0.00,weatherlink.com 1.10,2013-07-12 15:57:00,
2013-07-12 09:12:00,58.8,53.0,29.92,SW,219,2.0,6.0,80,0.00,,,0.00,weatherlink.com 1.10,2013-07-12 16:12:00,
2013-07-12 09:27:00,58.8,53.0,29.93,South,191,5.0,7.0,82,0.00,,,0.00,weatherlink.com 1.10,2013-07-12 16:27:00,
2013-07-12 09:43:00,58.8,53.0,29.93,SSW,211,6.0,8.0,82,0.00,,,0.00,weatherlink.com 1.10,2013-07-12 16:43:00,
2013-07-12 09:58:00,58.9,53.0,29.93,SSW,198,7.0,8.0,81,0.00,,,0.00,weatherlink.com 1.10,2013-07-12 16:58:00,
2013-07-12 10:12:00,59.7,54.0,29.92,South,180,4.0,9.0,81,0.00,,,0.00,weatherlink.com 1.10,2013-07-12 17:12:00,
2013-07-12 10:28:00,60.3,53.0,29.92,SSW,194,3.0,7.0,78,0.00,,,0.00,weatherlink.com 1.10,2013-07-12 17:28:00,
2013-07-12 10:43:00,60.4,54.0,29.93,SSW,206,4.0,7.0,79,0.00,,,0.00,weatherlink.com 1.10,2013-07-12 17:43:00,
2013-07-12 11:13:00,62.0,56.0,29.92,SSW,195,7.0,7.0,80,0.00,,,0.00,weatherlink.com 1.10,2013-07-12 18:13:00,
2013-07-12 11:28:00,62.9,56.0,29.93,SSW,205,6.0,7.0,77,0.00,,,0.00,weatherlink.com 1.10,2013-07-12 18:28:00,
2013-07-12 11:58:00,62.3,56.0,29.93,SSW,202,6.0,7.0,80,0.00,,,0.00,weatherlink.com 1.10,2013-07-12 18:58:00,
2013-07-12 12:13:00,63.5,57.0,29.93,SSW,202,7.0,10.0,80,0.00,,,0.00,weatherlink.com 1.10,2013-07-12 19:13:00,
2013-07-12 12:28:00,63.4,57.0,29.93,SW,217,8.0,12.0,79,0.00,,,0.00,weatherlink.com 1.10,2013-07-12 19:28:00,
2013-07-12 12:43:00,64.4,57.0,29.93,SW,232,5.0,10.0,76,0.00,,,0.00,weatherlink.com 1.10,2013-07-12 19:43:00,
2013-07-12 12:58:00,65.1,58.0,29.94,SW,227,7.0,10.0,78,0.00,,,0.00,weatherlink.com 1.10,2013-07-12 19:58:00,
2013-07-12 13:13:00,65.2,57.0,29.94,SSW,207,4.0,10.0,75,0.00,,,0.00,weatherlink.com 1.10,2013-07-12 20:13:00,
2013-07-12 13:43:00,64.2,56.0,29.94,WSW,248,6.0,9.0,74,0.00,,,0.00,weatherlink.com 1.10,2013-07-12 20:43:00,
2013-07-12 13:58:00,64.4,56.0,29.94,SSW,213,3.0,8.0,74,0.00,,,0.00,weatherlink.com 1.10,2013-07-12 20:58:00,
2013-07-12 14:13:00,64.1,56.0,29.94,West,264,6.0,11.0,74,0.00,,,0.00,weatherlink.com 1.10,2013-07-12 21:13:00,
2013-07-12 14:28:00,64.5,56.0,29.94,WSW,252,7.0,9.0,73,0.00,,,0.00,weatherlink.com 1.10,2013-07-12 21:28:00,
2013-07-12 14:43:00,63.8,54.0,29.94,WSW,251,7.0,8.0,70,0.00,,,0.00,weatherlink.com 1.10,2013-07-12 21:43:00,
2013-07-12 15:28:00,66.5,56.0,29.94,WSW,248,4.0,9.0,68,0.00,,,0.00,weatherlink.com 1.10,2013-07-12 22:28:00,
2013-07-12 15:43:00,66.7,57.0,29.93,SW,227,6.0,9.0,72,0.00,,,0.00,weatherlink.com 1.10,2013-07-12 22:43:00,
2013-07-12 15:58:00,66.5,58.0,29.94,South,188,5.0,10.0,74,0.00,,,0.00,weatherlink.com 1.10,2013-07-12 22:58:00,
2013-07-12 16:28:00,65.4,58.0,29.93,SSW,198,6.0,11.0,78,0.00,,,0.00,weatherlink.com 1.10,2013-07-12 23:28:00,
2013-07-12 16:58:00,65.5,58.0,29.94,SSW,213,7.0,12.0,76,0.00,,,0.00,weatherlink.com 1.10,2013-07-12 23:58:00,
2013-07-12 17:28:00,65.9,56.0,29.94,SSW,207,6.0,16.0,71,0.00,,,0.00,weatherlink.com 1.10,2013-07-13 00:28:00,
2013-07-12 17:43:00,66.5,57.0,29.94,SW,235,10.0,15.0,72,0.00,,,0.00,weatherlink.com 1.10,2013-07-13 00:43:00,
2013-07-12 17:58:00,66.5,57.0,29.94,SW,218,7.0,11.0,72,0.00,,,0.00,weatherlink.com 1.10,2013-07-13 00:58:00,
2013-07-12 18:13:00,65.2,56.0,29.95,South,188,6.0,10.0,73,0.00,,,0.00,weatherlink.com 1.10,2013-07-13 01:13:00,
2013-07-12 18:28:00,65.1,57.0,29.95,South,179,5.0,9.0,75,0.00,,,0.00,weatherlink.com 1.10,2013-07-13 01:28:00,
2013-07-12 18:43:00,64.3,56.0,29.94,SSE,168,6.0,10.0,75,0.00,,,0.00,weatherlink.com 1.10,2013-07-13 01:43:00,
2013-07-12 18:58:00,64.0,57.0,29.94,SSW,206,12.0,14.0,77,0.00,,,0.00,weatherlink.com 1.10,2013-07-13 01:58:00,
2013-07-12 19:28:00,63.4,56.0,29.95,South,182,13.0,16.0,77,0.00,,,0.00,weatherlink.com 1.10,2013-07-13 02:28:00,
2013-07-12 19:58:00,62.8,56.0,29.95,South,188,11.0,14.0,78,0.00,,,0.00,weatherlink.com 1.10,2013-07-13 02:58:00,
2013-07-12 20:28:00,62.5,55.0,29.95,South,169,10.0,14.0,77,0.00,,,0.00,weatherlink.com 1.10,2013-07-13 03:28:00,
2013-07-12 20:43:00,62.7,56.0,29.95,South,183,9.0,14.0,79,0.00,,,0.00,weatherlink.com 1.10,2013-07-13 03:43:00,
2013-07-12 20:58:00,62.9,56.0,29.95,South,172,12.0,17.0,78,0.00,,,0.00,weatherlink.com 1.10,2013-07-13 03:58:00,
2013-07-12 21:13:00,62.7,56.0,29.96,South,169,12.0,16.0,79,0.00,,,0.00,weatherlink.com 1.10,2013-07-13 04:13:00,
2013-07-12 21:28:00,62.7,55.0,29.96,South,182,10.0,16.0,77,0.00,,,0.00,weatherlink.com 1.10,2013-07-13 04:28:00,
2013-07-12 21:43:00,62.4,56.0,29.96,South,173,14.0,17.0,79,0.00,,,0.00,weatherlink.com 1.10,2013-07-13 04:43:00,
2013-07-12 21:58:00,62.3,57.0,29.97,SSE,166,9.0,17.0,82,0.00,,,0.00,weatherlink.com 1.10,2013-07-13 04:58:00,
2013-07-12 22:13:00,62.0,56.0,29.97,SSE,153,13.0,17.0,80,0.00,,,0.00,weatherlink.com 1.10,2013-07-13 05:13:00,
2013-07-12 22:28:00,61.8,55.0,29.97,South,180,10.0,15.0,77,0.00,,,0.00,weatherlink.com 1.10,2013-07-13 05:28:00,
2013-07-12 22:43:00,62.0,54.0,29.97,South,183,10.0,17.0,75,0.00,,,0.00,weatherlink.com 1.10,2013-07-13 05:43:00,
2013-07-12 22:58:00,62.1,54.0,29.98,SSE,167,10.0,15.0,74,0.00,,,0.00,weatherlink.com 1.10,2013-07-13 05:58:00,
2013-07-12 23:26:00,-999.0,-99.9,29.99,SSE,155,9.0,9.0,-999,0.00,,,0.00,weatherlink.com 1.10,2013-07-13 06:26:00,
2013-07-12 23:41:00,61.2,52.0,30.00,SSE,165,8.0,13.0,71,0.00,,,0.00,weatherlink.com 1.10,2013-07-13 06:41:00,
2013-07-12 23:57:00,61.1,51.0,30.00,South,180,8.0,15.0,70,0.00,,,0.00,weatherlink.com 1.10,2013-07-13 06:57:00,